Location: Isola Pescaroli
(45.0500°N, 10.1667°E)
Time: 00:45:41
(UTC+00:00)

SL-4 R/B - Pass Details

Date: 22 June 2021
Orbit: 428 x 662 km, 51.6° (Epoch: 29 July)

Event Time Altitude Azimuth Distance (km) Brightness Sun altitude
Rises 19:59:52 0° 211° (SSW) 2,833 5.5 -7.6°
Reaches altitude 10° 20:02:23 10° 202° (SSW) 1,894 4.5 -7.9°
Maximum altitude 20:06:13 32° 139° (SE) 973 2.7 -8.4°
Drops below altitude 10° 20:09:48 10° 76° (ENE) 1,771 4.3 -8.8°
Sets 20:12:05 0° 66° (ENE) 2,618 5.3 -9.1°
